This is the latest recevied weather packets stored in our database for station/object KB3HHA-13. If no packets are shown the sender has not sent any weather packets the latest 10 day(s).
| Time | Temp. | Humidity | Pressure | Rain* | Wind** | Luminosity | Snow |
|---|---|---|---|---|---|---|---|
| 1777915622 | 23.33° C | 39% | 1012.1 hPa | 0 mm | - | - | - |
| 1777915321 | 22.78° C | 38% | 1012.3 hPa | 0 mm | - | - | - |
| 1777915020 | 22.78° C | 37% | 1012.2 hPa | 0 mm | - | - | - |
| 1777914722 | 22.78° C | 37% | 1012.3 hPa | 0 mm | - | - | - |
| 1777914420 | 22.78° C | 38% | 1012.4 hPa | 0 mm | - | - | - |
| 1777914121 | 22.78° C | 36% | 1012.5 hPa | 0 mm | - | - | - |
| 1777913821 | 22.78° C | 36% | 1012.5 hPa | 0 mm | - | - | - |
| 1777913520 | 22.78° C | 37% | 1012.6 hPa | 0 mm | - | - | - |
| 1777913221 | 22.22° C | 39% | 1012.6 hPa | 0 mm | - | - | - |
| 1777912923 | 22.22° C | 38% | 1012.6 hPa | 0 mm | - | - | - |
| 1777912621 | 22.22° C | 37% | 1012.7 hPa | 0 mm | - | - | - |
| 1777912322 | 22.22° C | 36% | 1012.8 hPa | 0 mm | - | - | - |
| 1777912021 | 22.22° C | 38% | 1012.8 hPa | 0 mm | - | - | - |
| 1777911721 | 21.67° C | 37% | 1012.9 hPa | 0 mm | - | - | - |
| 1777911422 | 21.67° C | 40% | 1013.1 hPa | 0 mm | - | - | - |
| 1777911120 | 21.67° C | 38% | 1012.9 hPa | 0 mm | - | - | - |
| 1777910821 | 21.11° C | 39% | 1013 hPa | 0 mm | - | - | - |
| 1777910523 | 20.56° C | 39% | 1013.2 hPa | 0 mm | - | - | - |
| 1777910222 | 20.56° C | 38% | 1013.2 hPa | 0 mm | - | - | - |
| 1777909920 | 20.56° C | 38% | 1013.3 hPa | 0 mm | - | - | - |
| 1777909620 | 20° C | 40% | 1013.3 hPa | 0 mm | - | - | - |
| 1777909322 | 20° C | 40% | 1013.4 hPa | 0 mm | - | - | - |
| 1777909020 | 20° C | 39% | 1013.5 hPa | 0 mm | - | - | - |
| 1777908721 | 20° C | 39% | 1013.4 hPa | 0 mm | - | - | - |
| 1777908420 | 19.44° C | 40% | 1013.5 hPa | 0 mm | - | - | - |
* Rain latest hour (hover to see other rain measurements)
** Current wind speed in m/s (hover to see current wind gust speed)